NOAA 16 DEB, 41212

Orbit data source: Space-Track

NOAA 16 DEB, 41212 is space debris in SSO originally from a launch on Thu, 21 Sep 2000 UTC launched from the Air Force Western Test Range (AFWTR). Debris objects in space refer to the collection of defunct objects orbiting the Earth. Examples of debris include non-operational satellites, rocket bodies, and fragments generated from explosions, collisions, or faulty payload assembly.

Loading next visibility...
Identifier
41212, 2000-055DR
Orbit
SSO
Country
Flag of USUS
Related business
Manufacturer
Unknown
Mission
Spacecraft
Bus & Motor
Unknown
Mass
Unknown
Launch date (UTC)
2000-09-21 (25 years ago)
Launch vehicle
Unknown
Launch site
Air Force Western Test Range (AFWTR)
Object type
Payload
Rocket body
Debris
Shape & HBR
Unknown shape, 0.1 m
Radar Cross Section
Small (<0.1 m²)

Expand to show TLE details & history
Last TLE update: 15 hours ago

TLE from 15 hours ago
0 NOAA 16 DEB
1 41212U 00055DR  25304.84444884  .00007968  00000-0  27773-2 0  9996
2 41212  98.9381  80.3941 0015866 253.7147 106.2292 14.35537899512419
Epoch: 2025-10-31T20:16Z
TLE epoch observation values (Epoch: 2025-10-31T20:16:00.379Z)
Latitude
-0.00007°
Longitude
96.00948°
Altitude
779.396 km
Speed
7.463 km/s
True Right ascension
05h 21m 34s
True Declination
0° 00' 00"
Sunlit
Object was in full shadow at epoch
Visualization orbit readout
Latitude
Unknown
Longitude
Unknown
Altitude
Unknown
Speed
Unknown
Apparent Right ascension
Unknown
Apparent Declination
Unknown
Sunlit
N/A
Visualization observer readout
Local Sidereal Time
07:28:43
Azimuth
Unknown
Elevation
Unknown
Doppler factor
Unknown
Orbital elements
Apogee altitude
781.77 km
Perigee altitude
759.086 km
Semi-major axis
7,148.565 km
Eccentricity
0.00159
Inclination
98.9381°
RAAN
80.3941°
Arg. of periapsis
253.7147°
True anomaly
106.40367°
Mean anomaly
106.2292°
Eccentric anomaly
106.31644°
Mean motion
3.591 °/min
Orbital period
100.25 mins
BSTAR
0.0027773
Loading maneuver chart data...
Computing Atmospheric mass density...
Loading historical data...
Loading historical data...
Loading historical data...
Loading historical data...
Loading historical data...
Loading historical data...
Loading historical data...

Documentation

Showing up to 5 results
|